Regional Weather Roundup
Issued by NWS

Home | Current Version | Previous Version | Text Only | Print | Product List | Glossary On
Versions: 1 2 3 4 5 6 7 8 9 10 11 12 13 14 15 16 17 18 19 20 21 22 23 24 25 26 27 28 29 30 31 32 33 34 35 36 37 38 39 40 41 42 43 44 45 46 47 48 49 50
000
ASUS43 KMKX 270421
RWRWI

WISCONSIN REGIONAL WEATHER ROUNDUP
NATIONAL WEATHER SERVICE MILWAUKEE/SULLIVAN WI
1100 PM CDT FRI AUG 26 2016

NOTE: "FAIR" INDICATES FEW OR NO CLOUDS BELOW 12,000 FEET WITH NO
SIGNIFICANT WEATHER AND/OR OBSTRUCTIONS TO VISIBILITY.

WIZ001-002-006>008-014>016-023>028-270500-
NORTHWEST WISCONSIN

CITY           SKY/WX    TMP DP  RH WIND       PRES   REMARKS
SUPERIOR ARPT  MOCLDY    58  55  88 CALM      30.12R
ASHLAND        PTCLDY    57  53  86 S5        30.15R
HAYWARD        CLOUDY    55  53  93 CALM      30.16R
SIREN          CLOUDY    60  56  86 SE5       30.13F
CUMBERLAND     CLOUDY    57  55  94 CALM      30.15S
RICE LAKE      CLOUDY    57  55  93 CALM      30.17S
CHETEK         NOT AVBL
LADYSMITH      CLOUDY    58  56  95 CALM      30.18S
EAU CLAIRE     CLOUDY    60  59  96 CALM      30.14S
MENOMONIE      CLOUDY    61  59  94 CALM      30.14F
NEW RICHMOND   CLOUDY    60  58  93 SE3       30.14S
OSCEOLA        CLOUDY    60  60 100 E3        30.16S
$$

WIZ003>005-009-010-017-018-270500-
NORTH CENTRAL WISCONSIN

CITY           SKY/WX    TMP DP  RH WIND       PRES   REMARKS
MANITOWISH WTR NOT AVBL
ARBOR VITAE    MOCLDY    55  52  92 CALM      30.19R
WOODRUFF       MOCLDY    55  52  92 CALM      30.19R
RHINELANDER    MOCLDY    54  54 100 CALM      30.19R
EAGLE RIVER    PTCLDY    51  51 100 CALM      30.18S FOG
LAND O LAKES   PTCLDY    49  49 100 CALM      30.20R
PHILLIPS       CLOUDY    54  54 100 CALM      30.17S
TOMAHAWK       CLOUDY    53  52  96 CALM      30.18S
MEDFORD        CLOUDY    55  55 100 CALM      30.17S
MERRILL        MOCLDY    57  57 100 CALM      30.18F
$$

WIZ029-030-035-036-043>047-270500-
CENTRAL WISCONSIN

CITY           SKY/WX    TMP DP  RH WIND       PRES   REMARKS
WAUSAU         CLOUDY    62  57  83 CALM      30.16S
MOSINEE        PTCLDY    59  59 100 CALM      30.18S
MARSHFIELD     CLOUDY    61  58  90 CALM      30.16S
STEVENS POINT  PTCLDY    59  57  95 CALM      30.18S
WAUPACA        CLOUDY    64  62  93 CALM      30.16S
WAUTOMA        LGT RAIN  63  61  93 E3        30.16F
WISC RAPIDS    PTCLDY    61  59  93 CALM      30.18S
CAMP DOUGLAS   CLOUDY    62  61  97 CALM      30.15F
$$

WIZ011>013-019>022-031-037>040-048>050-270500-
NORTHEAST WISCONSIN

CITY           SKY/WX    TMP DP  RH WIND       PRES   REMARKS
ANTIGO         PTCLDY    57  56  95 CALM      30.18S
SHAWANO        CLOUDY    64  58  80 CALM      30.16S
OCONTO         NOT AVBL
STURGEON BAY   CLOUDY    62  58  86 S3        30.16F
GREEN BAY      MOCLDY    62  62 100 CALM      30.16S
MANITOWOC      MOCLDY    61  58  90 CALM      30.16F
APPLETON       CLOUDY    64  54  68 CALM      30.15F
CLINTONVILLE   CLOUDY    61  59  94 CALM      30.15F
OSHKOSH        CLOUDY    64  59  83 NW3       30.14F
$$

WIZ032>034-041-042-053>061-270500-
SOUTHWEST WISCONSIN

CITY           SKY/WX    TMP DP  RH WIND       PRES   REMARKS
LA CROSSE      LGT RAIN  67  63  87 NE5       30.13F
SPARTA         LGT RAIN  62  61  94 NW3       30.15F
VIROQUA        CLOUDY    63  62  96 E3        30.15S
BOSCOBEL       CLOUDY    65  64  97 CALM      30.12F
PRAIRIE DU CHI CLOUDY    64  61  88 E3        30.11F
PLATTEVILLE    CLOUDY    66  64  93 NE8       30.11F
$$

WIZ056-057-062-063-064-067-068-270500-
SOUTH CENTRAL WISCONSIN

CITY           SKY/WX    TMP DP  RH WIND       PRES   REMARKS
REEDSBURG      NOT AVBL
BARABOO/DELLS  LGT RAIN  63  60  89 N3        30.14F
LONE ROCK      CLOUDY    65  61  87 NE6       30.12F
MINERAL POINT  CLOUDY    66  61  82 NE6       30.12F
MADISON        CLOUDY    65  59  81 NE6       30.12F
MIDDLETON      CLOUDY    65  61  86 CALM      30.13F
WATERTOWN      MOCLDY    64  61  89 E3        30.13F
MONROE         CLOUDY    64  61  88 NE7       30.11F
JANESVILLE     CLOUDY    68  63  83 E7        30.11F
$$

WIZ051-052-058>065-066-070>072-270500-
SOUTHEAST WISCONSIN

CITY           SKY/WX    TMP DP  RH WIND       PRES   REMARKS
MILWAUKEE      CLOUDY    66  61  84 NE3       30.15S
WAUKESHA       PTCLDY    63  55  77 E3        30.16F
MILWAUKEE/TIMM PTCLDY    66  55  68 E5        30.15F
RACINE         CLOUDY    65  59  81 NE6       30.16F
BURLINGTON     PTCLDY    63  59  88 CALM      30.14F
KENOSHA        PTCLDY    65  60  84 NE6       30.15S
FOND DU LAC    CLOUDY    63  60  90 SE5       30.14F
SHEBOYGAN      PTCLDY    63  58  83 CALM      30.15F
WEST BEND      CLOUDY    63  59  88 CALM      30.15F
JUNEAU         CLOUDY    64  59  83 E5        30.15F
$$

LSZ147-162-270500-
LAKE SUPERIOR

STATION/POSITION TIME  TEMP    WIND        PRES    WAVE
                       AIR SEA DIR/SP/G            HT/PER
                 (UTC) (F)     (DEG/KT/KT) (MB)    (FT/S)
W MID LAKE BUOY  0350   66 67  150/  8/ 10 1020.1S   0
DEVILS ISLAND    0400   64     150/  7/  8 1020.5R
PORT WING        0340   64     170/  6/  8 1020.0S
SAXON HARBOR     0340   59     200/  5/  7 1020.3R
$$

LMZ867-665-643>646-270500-
LAKE MICHIGAN

STATION/POSITION TIME  TEMP    WIND        PRES    WAVE
                       AIR SEA DIR/SP/G            HT/PER
                 (UTC) (F)     (DEG/KT/KT) (MB)    (FT/S)
CHAMBERS ISLAND  0300   64        CALM     1021.0
S GREEN BAY BUOY 0400   69 72  270/  8/ 10 1020.5S
N MID LAKE BUOY  0350   68 71  330/  2/  2 1020.6F   1
NORTHPORT PIER   0300   66     180/  2/  5 1021.0R
SISTER BAY       0307   67     210/  8/ 10   N/A
KEWAUNEE LAKESHO 0300   61     220/  1/  1 1021.0R
SHEBOYGAN LAKESH 0400   67     270/  1/  1 1020.6F
PORT WASHINGTON  0340   63      CALM  /  2 1021.7F
ATWATER BUOY     0400   59     330/  4/  4   N/A
MILWAUKEE LAKESH 0310   66      30/  6/  6   N/A
S MID LAKE BUOY  0350   72 75   60/ 12/ 12 1020.0F   1
KENOSHA   LAKESH 0400   69      60/  7/  8 1020.3S
$$

TC  - TEMPERATURE IN CELSIUS
VSB - VISIBILITY IN STATUTE MILES
WCI - WIND CHILL INDEX
HX  - HEAT INDEX





USA.gov is the U.S. government's official web portal to all federal, state and local government web resources and services.